When you browse on this site, cookies collect data to enhance your experience and personalize the content and advertising you see.
Visit our Privacy Policy to learn more. By continuing to use the site, you agree to this use of cookies and data.
  • En España
  • Lista de países
  • Para 7 días
  • Temperatura del agua
  • Mapa Satelital
  • El tiempo en el mapa
  • Informadores
  • user-avatar
    Iniciar sesión

    Tiempo cada hora Borisovschina

    Hoy, 24 Mayo, Viernes

    Tiempo Temperatura Precipitaciones Viento Presión Humedad
    00:00 +15°C° 0 mm 2 mps 741 mmHg 95%
    01:00 +15°C° 0 mm 2 mps 741 mmHg 96%
    02:00 +14°C° 0 mm 1 mps 741 mmHg 97%
    03:00 +15°C° 0.6 mm 2 mps 741 mmHg 97%
    04:00 +15°C° 0.6 mm 2 mps 742 mmHg 97%
    05:00 +14°C° 0.6 mm 3 mps 742 mmHg 97%
    06:00 +14°C° 0.1 mm 3 mps 742 mmHg 95%
    07:00 +16°C° 0.1 mm 3 mps 742 mmHg 93%
    08:00 +16°C° 0 mm 3 mps 743 mmHg 92%
    09:00 +16°C° 0.1 mm 3 mps 743 mmHg 91%
    10:00 +16°C° 0.1 mm 3 mps 743 mmHg 90%
    11:00 +16°C° 0.1 mm 3 mps 743 mmHg 89%
    12:00 +17°C° 0 mm 3 mps 743 mmHg 87%
    13:00 +17°C° 0 mm 3 mps 743 mmHg 85%
    14:00 +18°C° 0 mm 3 mps 743 mmHg 83%
    15:00 +18°C° 0.1 mm 3 mps 742 mmHg 82%
    16:00 +19°C° 0.1 mm 3 mps 742 mmHg 81%
    17:00 +19°C° 0.1 mm 3 mps 742 mmHg 79%
    18:00 +18°C° 0.3 mm 3 mps 742 mmHg 84%
    19:00 +17°C° 0.3 mm 3 mps 742 mmHg 89%
    20:00 +16°C° 0.3 mm 3 mps 742 mmHg 94%
    21:00 +16°C° 0.4 mm 3 mps 742 mmHg 96%
    22:00 +14°C° 0.4 mm 3 mps 742 mmHg 97%
    23:00 +14°C° 0.4 mm 3 mps 742 mmHg 98%

    Mañana, 25 Mayo, Sábado

    Tiempo Temperatura Precipitaciones Viento Presión Humedad
    00:00 +14°C° 0 mm 3 mps 741 mmHg 97%
    01:00 +14°C° 0 mm 3 mps 741 mmHg 97%
    02:00 +14°C° 0 mm 3 mps 741 mmHg 97%
    03:00 +14°C° 0.9 mm 3 mps 741 mmHg 97%
    04:00 +15°C° 0.9 mm 2 mps 740 mmHg 97%
    05:00 +15°C° 0.9 mm 2 mps 740 mmHg 97%
    06:00 +16°C° 1.3 mm 2 mps 740 mmHg 97%
    07:00 +16°C° 1.3 mm 2 mps 740 mmHg 96%
    08:00 +16°C° 1.3 mm 3 mps 740 mmHg 96%
    09:00 +17°C° 0.1 mm 2 mps 740 mmHg 93%
    10:00 +18°C° 0.1 mm 2 mps 740 mmHg 91%
    11:00 +19°C° 0.1 mm 2 mps 739 mmHg 88%
    12:00 +20°C° 0.4 mm 2 mps 739 mmHg 84%
    13:00 +21°C° 0.4 mm 2 mps 739 mmHg 79%
    14:00 +21°C° 0.4 mm 2 mps 739 mmHg 75%
    15:00 +21°C° 0.8 mm 2 mps 739 mmHg 78%
    16:00 +21°C° 0.8 mm 2 mps 739 mmHg 81%
    17:00 +20°C° 0.8 mm 2 mps 738 mmHg 84%
    18:00 +19°C° 0.5 mm 2 mps 738 mmHg 86%
    19:00 +18°C° 0.5 mm 2 mps 738 mmHg 88%
    20:00 +16°C° 0.5 mm 2 mps 738 mmHg 91%
    21:00 +15°C° 0 mm 2 mps 738 mmHg 92%
    22:00 +14°C° 0 mm 2 mps 739 mmHg 93%
    23:00 +13°C° 0 mm 2 mps 739 mmHg 95%

    Pasado mañana, 26 Mayo, Domingo

    Tiempo Temperatura Precipitaciones Viento Presión Humedad
    00:00 +13°C° 0 mm 2 mps 739 mmHg 95%
    01:00 +12°C° 0 mm 2 mps 739 mmHg 96%
    02:00 +12°C° 0 mm 2 mps 739 mmHg 96%
    03:00 +12°C° 0 mm 2 mps 739 mmHg 96%
    04:00 +12°C° 0 mm 2 mps 740 mmHg 96%
    05:00 +10°C° 0 mm 2 mps 740 mmHg 96%
    06:00 +13°C° 0 mm 2 mps 740 mmHg 91%
    07:00 +14°C° 0 mm 2 mps 740 mmHg 86%
    08:00 +15°C° 0 mm 2 mps 740 mmHg 81%
    09:00 +16°C° 0 mm 2 mps 740 mmHg 75%
    10:00 +17°C° 0 mm 2 mps 740 mmHg 68%
    11:00 +18°C° 0 mm 3 mps 740 mmHg 62%
    12:00 +18°C° 0 mm 3 mps 740 mmHg 61%
    13:00 +19°C° 0 mm 3 mps 740 mmHg 60%
    14:00 +19°C° 0 mm 4 mps 740 mmHg 59%
    15:00 +19°C° 0 mm 4 mps 740 mmHg 60%
    16:00 +19°C° 0 mm 4 mps 740 mmHg 62%
    17:00 +18°C° 0 mm 4 mps 739 mmHg 63%
    18:00 +17°C° 0 mm 3 mps 739 mmHg 69%
    19:00 +14°C° 0 mm 3 mps 739 mmHg 75%
    20:00 +14°C° 0 mm 2 mps 739 mmHg 81%
    21:00 +13°C° 0 mm 3 mps 739 mmHg 83%
    22:00 +12°C° 0 mm 3 mps 740 mmHg 85%
    23:00 +12°C° 0 mm 3 mps 740 mmHg 87%

    27 Mayo, Lunes

    Tiempo Temperatura Precipitaciones Viento Presión Humedad
    00:00 +12°C° 0 mm 3 mps 740 mmHg 88%
    01:00 +11°C° 0 mm 3 mps 740 mmHg 89%
    02:00 +11°C° 0 mm 3 mps 740 mmHg 91%
    03:00 +11°C° 0 mm 3 mps 741 mmHg 91%
    04:00 +11°C° 0 mm 3 mps 741 mmHg 90%
    05:00 +10°C° 0 mm 3 mps 741 mmHg 90%
    06:00 +11°C° 0 mm 4 mps 742 mmHg 83%
    07:00 +12°C° 0 mm 4 mps 742 mmHg 75%
    08:00 +13°C° 0 mm 5 mps 743 mmHg 68%
    09:00 +14°C° 0 mm 5 mps 743 mmHg 66%
    10:00 +15°C° 0 mm 5 mps 743 mmHg 64%
    11:00 +16°C° 0 mm 5 mps 743 mmHg 62%
    12:00 +17°C° 0.1 mm 5 mps 743 mmHg 63%
    13:00 +17°C° 0.1 mm 5 mps 743 mmHg 64%
    14:00 +19°C° 0.1 mm 5 mps 744 mmHg 65%
    15:00 +18°C° 0.1 mm 4 mps 743 mmHg 68%
    16:00 +18°C° 0.1 mm 4 mps 743 mmHg 71%
    17:00 +18°C° 0.1 mm 3 mps 743 mmHg 73%
    18:00 +17°C° 0 mm 3 mps 743 mmHg 78%
    19:00 +16°C° 0 mm 3 mps 743 mmHg 83%
    20:00 +16°C° 0 mm 2 mps 743 mmHg 88%
    21:00 +14°C° 0 mm 3 mps 743 mmHg 88%
    22:00 +14°C° 0 mm 3 mps 743 mmHg 87%
    23:00 +14°C° 0 mm 3 mps 743 mmHg 86%

    28 Mayo, Martes

    Tiempo Temperatura Precipitaciones Viento Presión Humedad
    00:00 +14°C° 0 mm 3 mps 743 mmHg 87%
    01:00 +14°C° 0 mm 3 mps 743 mmHg 88%
    02:00 +13°C° 0 mm 3 mps 744 mmHg 89%
    03:00 +13°C° 0 mm 3 mps 744 mmHg 89%
    04:00 +14°C° 0 mm 3 mps 744 mmHg 89%
    05:00 +14°C° 0 mm 3 mps 744 mmHg 90%
    06:00 +17°C° 0 mm 3 mps 744 mmHg 85%
    07:00 +18°C° 0 mm 2 mps 744 mmHg 81%
    08:00 +20°C° 0 mm 2 mps 745 mmHg 77%
    09:00 +21°C° 0.1 mm 3 mps 745 mmHg 73%
    10:00 +22°C° 0.1 mm 3 mps 745 mmHg 70%
    11:00 +24°C° 0.1 mm 3 mps 745 mmHg 66%
    12:00 +24°C° 0.3 mm 3 mps 745 mmHg 66%
    13:00 +25°C° 0.3 mm 3 mps 744 mmHg 66%
    14:00 +25°C° 0.3 mm 4 mps 744 mmHg 66%
    15:00 +24°C° 0.8 mm 3 mps 744 mmHg 75%
    16:00 +21°C° 0.8 mm 3 mps 744 mmHg 83%
    17:00 +20°C° 0.8 mm 2 mps 744 mmHg 92%
    18:00 +20°C° 0 mm 3 mps 744 mmHg 92%
    19:00 +20°C° 0 mm 3 mps 744 mmHg 92%
    20:00 +20°C° 0 mm 3 mps 744 mmHg 93%
    21:00 +19°C° 0 mm 4 mps 744 mmHg 91%
    22:00 +19°C° 0 mm 4 mps 744 mmHg 90%
    23:00 +19°C° 0 mm 4 mps 743 mmHg 88%

    29 Mayo, Miércoles

    Tiempo Temperatura Precipitaciones Viento Presión Humedad
    00:00 +19°C° 0 mm 4 mps 743 mmHg 90%
    01:00 +19°C° 0 mm 4 mps 743 mmHg 92%
    02:00 +18°C° 0 mm 4 mps 743 mmHg 94%
    03:00 +18°C° 0 mm 4 mps 743 mmHg 93%
    04:00 +18°C° 0 mm 4 mps 743 mmHg 91%
    05:00 +18°C° 0 mm 4 mps 743 mmHg 90%
    06:00 +20°C° 0 mm 5 mps 743 mmHg 84%
    07:00 +21°C° 0 mm 5 mps 743 mmHg 77%
    08:00 +22°C° 0 mm 6 mps 743 mmHg 70%
    09:00 +23°C° 0 mm 6 mps 743 mmHg 68%
    10:00 +24°C° 0 mm 6 mps 742 mmHg 67%
    11:00 +26°C° 0 mm 6 mps 742 mmHg 65%
    12:00 +26°C° 0.6 mm 6 mps 742 mmHg 68%
    13:00 +26°C° 0.6 mm 6 mps 742 mmHg 72%
    14:00 +26°C° 0.6 mm 6 mps 742 mmHg 75%
    15:00 +24°C° 1.8 mm 6 mps 742 mmHg 78%
    16:00 +23°C° 1.8 mm 6 mps 742 mmHg 82%
    17:00 +22°C° 1.8 mm 5 mps 742 mmHg 86%
    18:00 +21°C° 0.2 mm 5 mps 742 mmHg 88%
    19:00 +20°C° 0.2 mm 4 mps 742 mmHg 90%
    20:00 +19°C° 0.2 mm 3 mps 742 mmHg 93%
    21:00 +19°C° 0.2 mm 3 mps 742 mmHg 94%
    22:00 +18°C° 0.2 mm 3 mps 742 mmHg 95%
    23:00 +18°C° 0.2 mm 2 mps 742 mmHg 96%
    Mostrar más